Location: Cella
(44.7333°N, 10.5667°E)
Time: 09:46:28
(UTC+00:00)

Cosmos 2278 Rocket - Pass Details

Date: 03 March 2021
Orbit: 841 x 845 km, 71.0° (Epoch: 18 April)

Event Time Altitude Azimuth Distance (km) Brightness Sun altitude
Rises 20:24:30 0° 332° (NNW) 3,413 6.1 -34.6°
Reaches altitude 10° 20:26:58 10° 330° (NNW) 2,474 5.2 -35.0°
Enters shadow 20:30:22 37° 320° (NW) 1,282 3.4 -35.5°
